Other Public Products
Issued by NWS Grand Forks, ND

Home | Current Version | Previous Version | Graphics & Text | Print | Product List | Glossary On
Versions: 1 2 3 4 5 6 7 8 9 10 11 12 13 14 15 16 17 18 19 20 21 22 23 24 25 26 27 28 29 30 31 32 33 34 35 36 37 38 39 40 41 42 43 44 45 46 47 48 49 50
000
FPUS83 KFGF 240631
OPUFGF
PRAIRIE TO PINES WEATHER ROUNDUP
NATIONAL WEATHER SERVICE EASTERN NORTH DAKOTA/GRAND FORKS ND
1200 AM CST TUE JAN 24 2017

 **SATELLITE DATA USED TO AUGMENT SKY COVER AT AUTOMATED STATIONS**
 *****  WEATHER ACROSS EASTERN NORTH DAKOTA  *****

CITY           SKY/WX    TMP DP  RH WIND       PRES   REMARKS
GRAND FORKS    CLOUDY    26  19  74 W17G26    29.84R WCI  13
6HR MIN TEMP:  26; 6HR MAX TEMP:  31;

GRAND FORKS AF CLOUDY    25  19  80 W14       29.84R WCI  13
GRAND CITY NWS NOT AVBL
BUXTON           N/A     29  27  93 W8          N/A  WCI  21
DEVILS LAKE    CLOUDY    22  19  89 W14       29.81R WCI   9
6HR MIN TEMP:  22; 6HR MAX TEMP:  23;

FARGO          CLOUDY    33  25  72 W7        29.86R
6HR MIN TEMP:  33; 6HR MAX TEMP:  34;

WAHPETON ARPT  CLOUDY    32  27  80 N3        29.86S
$$

 *****  WEATHER ACROSS CENTRAL AND WESTERN NORTH DAKOTA  *****

CITY           SKY/WX    TMP DP  RH WIND       PRES   REMARKS
JAMESTOWN      CLOUDY    28  24  85 NW5       29.82R WCI  23
6HR MIN TEMP:  28; 6HR MAX TEMP:  29;

BISMARCK       CLOUDY    29  25  85 CALM      29.84R
6HR MIN TEMP:  29; 6HR MAX TEMP:  31;

MINOT          CLOUDY    24  18  77 W12       29.81R WCI  13
6HR MIN TEMP:  23; 6HR MAX TEMP:  24;

MINOT AFB      CLOUDY    22  18  85 W14       29.80R WCI   9
6HR MIN TEMP:  21; 6HR MAX TEMP:  22;

GARRISON         N/A     21  17  84 W9        29.82R WCI  11
6HR MIN TEMP:  19; 6HR MAX TEMP:  24;

WILLISTON      CLOUDY    22  19  89 W8        29.84S WCI  12
6HR MIN TEMP:  20; 6HR MAX TEMP:  22; 6HR PCP: TRACE;

DICKINSON      CLOUDY    23  21  92 NW6       29.77S FOG     WCI  16
6HR MIN TEMP:  22; 6HR MAX TEMP:  23;

HETTINGER      FOG       21  19  92 N3        29.79S VSB 3/4
6HR MIN TEMP:  21; 6HR MAX TEMP:  21;

$$

 *****  OTHER OBSERVATIONS NORTHEAST NORTH DAKOTA  *****

CITY           SKY/WX    TMP DP  RH WIND       PRES   REMARKS
WALHALLA       NOT AVBL
LANGDON        NOT AVBL
CAVALIER       CLOUDY    27  23  86 SW7       29.80S WCI  19
GRAFTON        CLOUDY    25  23  93 SW12      29.84R WCI  14
CANDO          NOT AVBL
FORT TOTTEN      N/A     21  20  96 W7        29.95S WCI  12
ROLLA            N/A    N/A N/A N/A MISG        N/A
RUGBY            N/A     21  19  93 W13       29.80R WCI   9
 ***** THE ABOVE OBSERVATIONS ARE NON NWS ARE NOT QUALITY
        CONTROLLED AND MAY MIS-REPORT RAIN FOR SNOW...
$$

 *****  OTHER OBSERVATIONS SOUTHEAST NORTH DAKOTA *****

CITY           SKY/WX    TMP DP  RH WIND       PRES   REMARKS
COOPERSTOWN    CLOUDY    25  23  93 W9        29.83S WCI  15
VALLEY CITY    CLOUDY    28  28 100 W7        29.85S WCI  21
OAKES          NOT AVBL
GWINNER        CLOUDY    32  28  86 N3        29.85S
SHEYENNE NWR     N/A     29  23  79 N3        29.95S
BUFFALO          N/A     30  21  69 W7          N/A  WCI  23
WYNDMERE         N/A     30  28  93 N3          N/A
 ***** THE ABOVE OBSERVATIONS ARE NON NWS ARE NOT QUALITY
       CONTROLLED AND MAY MIS-REPORT RAIN FOR SNOW...
$$

  *****  WEATHER ACROSS NORTHERN MINNESOTA  *****

CITY           SKY/WX    TMP DP  RH WIND       PRES   REMARKS
FLAG ISLAND    CLOUDY    27  23  86 S7        29.79R WCI  19
WARROAD        CLOUDY    27  23  86 W8        29.80S WCI  18
ROSEAU         CLOUDY    27  21  80 SW9       29.80S WCI  17
HALLOCK        CLOUDY    27  25  93 SW9       29.81R WCI  17
THF RVR FALLS  CLOUDY    25  21  85 W14       29.83S WCI  13
6HR MIN TEMP:  25; 6HR MAX TEMP:  29;

HALSTAD          N/A     31  25  79 W6          N/A  WCI  25
FOSSTON        CLOUDY    27  23  86 W9        29.84R WCI  17
BAUDETTE       CLOUDY    28  22  78 SW9       29.79S WCI  19
6HR MIN TEMP:  28; 6HR MAX TEMP:  30;

WASKISH        CLOUDY    28  25  86 W12       29.82R WCI  18
CROOKSTON      CLOUDY    27  25  93 NW5       29.86R WCI  21
$$
  *****  WEATHER ACROSS CENTRAL AND WEST MINNESOTA  *****

CITY           SKY/WX    TMP DP  RH WIND       PRES   REMARKS
BEMIDJI        CLOUDY    27  22  82 W9        29.82R WCI  18
PARK RAPIDS    CLOUDY    30  23  75 W5        29.81R
6HR MIN TEMP:  30; 6HR MAX TEMP:  31;

WADENA         CLOUDY    28  25  86 CALM      29.83R
DETROIT LAKES  CLOUDY    30  27  86 NW3       29.84S
MOORHEAD       CLOUDY    30  25  80 W6        29.87R WCI  24
FERGUS FALLS   CLOUDY    30  28  93 N3        29.89R
ELBOW LAKE     CLOUDY    30  28  92 W3        29.85S
6HR MIN TEMP:  30; 6HR MAX TEMP:  31;

MORRIS MN      CLOUDY    30  27  86 CALM      29.85R
STAPLES        CLOUDY    28  27  93 CALM      29.83R
WHEATON        CLOUDY    30  27  86 CALM      29.88S
$$
  *****  WEATHER ELSEWHERE ACROSS MINNESOTA  *****

CITY           SKY/WX    TMP DP  RH WIND       PRES   REMARKS
DULUTH         FLURRIES  32  31  96 CALM      29.79F
6HR MIN TEMP:  32; 6HR MAX TEMP:  34; 6HR PCP: TRACE;

INTRNTL FALLS  CLOUDY    29  23  78 CALM      29.80S
6HR MIN TEMP:  29; 6HR MAX TEMP:  32;

ELY            FLURRIES  30  28  93 NW5       29.80S
CLOQUET        CLOUDY    30  28  93 CALM      29.81R
BRAINERD       CLOUDY    31  24  75 SW3       29.83R
6HR MIN TEMP:  30; 6HR MAX TEMP:  31;

HIBBING        CLOUDY    30  27  88 CALM      29.79F
6HR MIN TEMP:  30; 6HR MAX TEMP:  31;

ALEXANDRIA     CLOUDY    30  25  81 CALM      29.84R
6HR MIN TEMP:  30; 6HR MAX TEMP:  30;

SAINT CLOUD    CLOUDY    31  26  82 W5        29.84S
6HR MIN TEMP:  31; 6HR MAX TEMP:  32;

MINNEAPOLIS    CLOUDY    33  27  78 NW3       29.86R
6HR MIN TEMP:  33; 6HR MAX TEMP:  34;

$$

  *****  WEATHER ACROSS SOUTH DAKOTA  *****

CITY           SKY/WX    TMP DP  RH WIND       PRES   REMARKS
SIOUX FALLS    CLOUDY    32  30  92 SE8       29.81S WCI  25
6HR MIN TEMP:  31; 6HR MAX TEMP:  32;

BROOKINGS      CLOUDY    30  27  88 SE6       29.80F WCI  24
WATERTOWN      CLOUDY    28  26  92 SE6       29.79F WCI  22
6HR MIN TEMP:  28; 6HR MAX TEMP:  29;

HURON          CLOUDY    31  29  92 SE6       29.80F
6HR MIN TEMP:  31; 6HR MAX TEMP:  31;

SISSETON         N/A     32  29  88 CALM      29.84R
ABERDEEN       CLOUDY    29  25  85 N3        29.84S FOG
6HR MIN TEMP:  29; 6HR MAX TEMP:  30; 6HR PCP: TRACE;

MITCHELL       CLOUDY    32  29  88 SE6       29.81R
PIERRE         CLOUDY    29  26  89 E10       29.75F WCI  20
6HR MIN TEMP:  29; 6HR MAX TEMP:  30;

MOBRIDGE       CLOUDY    28  23  81 NE7       29.78S WCI  21
RAPID CITY     FOG       23  21  92 N16       29.70F VSB 3/4 WCI  10
6HR MIN TEMP:  22; 6HR MAX TEMP:  23;

$$

  *****  SOME WEATHER IN NEARBY STATES *****

CITY           SKY/WX    TMP DP  RH WIND       PRES   REMARKS
GLASGOW MT     CLOUDY    20  16  84 NW7       29.84S WCI  11
6HR MIN TEMP:  20; 6HR MAX TEMP:  23;

GREAT FALLS MT FOG       17  15  92 NW5       29.84R VSB 1   WCI  10
6HR MIN TEMP:  17; 6HR MAX TEMP:  20;

CHEYENNE WY    CLOUDY    30  29  96 SE9       29.53F WCI  22
6HR MIN TEMP:  30; 6HR MAX TEMP:  37; 6HR PCP:  0.10;

SCOTTSBLUFF NE CLOUDY    30  26  85 NE16      29.57R WCI  19
6HR MIN TEMP:  30; 6HR MAX TEMP:  40; 6HR PCP: TRACE;

OMAHA NE       CLOUDY    31  26  82 E5        29.84F
6HR MIN TEMP:  31; 6HR MAX TEMP:  34;

DES MOINES IA  CLOUDY    33  28  81 S3        29.87F
6HR MIN TEMP:  33; 6HR MAX TEMP:  35;

DAVENPORT IA   CLOUDY    33  31  92 W6        29.86S
6HR MIN TEMP:  33; 6HR MAX TEMP:  37;

CHICAGO IL     CLOUDY    38  34  85 N7        29.80F
6HR MIN TEMP:  36; 6HR MAX TEMP:  41;

EAU CLAIRE WI  CLOUDY    33  32  96 CALM      29.83S FOG
6HR MIN TEMP:  33; 6HR MAX TEMP:  34;

LA CROSSE WI   CLOUDY    37  32  82 CALM      29.86R
6HR MIN TEMP:  35; 6HR MAX TEMP:  37;

$$

  *****  SOME NATIONAL WEATHER *****

CITY           SKY/WX    TMP DP  RH WIND       PRES   REMARKS
LA GUARDIA NY  RAIN      39  35  86 NE25G36   29.41F FOG          C1F1C2F2C3F3C4F4C5F5C6F6C7F7C8F8C9F9CaFaCbFbCcFcCdFdCe!


USA.gov is the U.S. government's official web portal to all federal, state and local government web resources and services.